CDT,Max TemperatureF,Mean TemperatureF,Min TemperatureF,Max Dew PointF,MeanDew PointF,Min DewpointF,Max Humidity, Mean Humidity, Min Humidity, Max Sea Level PressureIn, Mean Sea Level PressureIn, Min Sea Level PressureIn, Max VisibilityMiles, Mean VisibilityMiles, Min VisibilityMiles, Max Wind SpeedMPH, Mean Wind SpeedMPH, Max Gust SpeedMPH,PrecipitationIn, CloudCover, Events, WindDirDegrees
2013-9-1,80,71,64,68,63,56,100,80,48,29.89,29.78,29.75,10,9,2,20,7,23,0.09,5,Rain,290
2013-9-2,69,61,51,57,51,47,90,74,45,30.05,29.98,29.90,10,10,10,12,9,,0.00,4,,350
2013-9-3,75,58,42,50,47,41,97,67,36,30.11,30.06,30.01,10,10,3,12,5,16,0.00,0,,290
2013-9-4,82,68,53,61,56,49,87,68,45,30.17,30.09,30.03,10,10,10,10,5,,0.00,0,,330
2013-9-5,78,66,53,57,52,45,100,76,31,30.30,30.23,30.18,10,8,0,13,7,,0.00,4,Fog,97
2013-9-6,89,71,53,64,56,49,86,64,38,30.20,30.07,29.94,10,10,10,15,8,26,0.00,1,,201
2013-9-7,91,78,66,68,64,61,88,66,45,30.04,29.93,29.88,10,10,10,16,7,22,0.00,3,,47
2013-9-8,73,64,55,61,55,48,87,68,46,30.12,30.05,29.96,10,10,10,16,11,23,0.00,4,Rain,104
2013-9-9,89,76,63,71,65,60,93,75,52,29.97,29.83,29.69,10,9,6,20,9,24,0.00,5,,160
2013-9-10,89,79,71,68,64,58,83,65,41,29.95,29.87,29.75,10,10,8,15,8,16,0.00,4,,274
2013-9-11,86,70,57,62,57,49,87,64,31,30.03,29.99,29.95,10,10,10,15,7,22,0.00,1,,279
2013-9-12,71,61,50,52,48,42,94,68,41,30.21,30.09,29.98,10,10,10,22,9,28,0.00,3,,350
2013-9-13,66,34,1,43,36,1,100,63,30,30.28,30.22,30.13,10,10,10,9,4,18,0.00,0,,1
2013-9-14,72,64,55,53,45,41,93,51,34,30.13,30.06,29.97,10,10,4,13,5,18,0.04,1,Rain,210
2013-9-15,66,58,48,54,51,40,100,84,60,30.32,30.06,29.95,10,8,2,13,6,24,0.39,8,Rain,65
2013-9-16,64,50,37,42,38,35,93,68,37,30.45,30.39,30.30,10,10,6,10,5,,0.00,0,,91
2013-9-17,66,52,39,55,47,38,94,77,46,30.36,30.23,30.06,10,9,2,14,6,22,0.06,3,Rain,157
2013-9-18,79,68,57,65,60,55,96,86,64,30.05,29.94,29.82,10,6,1,12,8,18,0.42,6,Rain,165
2013-9-19,82,73,66,71,66,61,100,88,69,29.85,29.78,29.68,10,5,1,18,7,33,1.42,6,Rain,195
2013-9-20,66,60,52,65,57,48,94,84,64,29.86,29.77,29.71,10,9,7,16,9,23,0.00,8,Rain,279
2013-9-21,60,52,44,46,43,41,90,73,53,30.00,29.92,29.86,10,10,10,15,9,24,0.00,4,,328
2013-9-22,63,51,39,42,40,36,93,70,45,30.11,30.05,30.01,10,10,10,10,5,,0.00,0,,115
2013-9-23,69,55,42,49,45,40,93,75,49,30.12,30.07,30.04,10,10,9,15,8,20,0.00,0,,134
2013-9-24,72,56,42,52,47,41,100,80,45,30.07,30.04,29.98,10,6,0,10,6,,0.00,2,Fog,94
2013-9-25,70,56,42,50,47,42,100,81,45,30.05,30.01,29.97,10,6,0,12,4,,0.00,1,Fog,93
2013-9-26,73,60,46,54,49,44,100,82,35,30.09,30.05,30.02,10,5,0,15,5,18,0.00,2,Fog,128
2013-9-27,81,66,51,55,50,46,86,61,38,30.10,30.05,29.99,10,10,7,18,8,30,0.00,0,,152
2013-9-28,78,63,51,64,54,48,100,82,52,29.99,29.87,29.75,10,8,1,26,12,37,0.33,6,Rain,217
2013-9-29,71,56,42,48,45,41,100,76,38,30.04,29.99,29.95,10,8,0,15,6,21,0.00,0,Fog,215
2013-9-30,72,59,46,48,45,41,86,62,34,29.94,29.84,29.76,10,10,8,21,10,36,0.00,0,,186